Regional Weather Roundup
Issued by NWS

Home | Current Version | Previous Version | Graphics & Text | Print | Product List | Glossary On
Versions: 1 2 3 4 5 6 7 8 9 10 11 12 13 14 15 16 17 18 19 20 21 22 23 24 25 26 27 28 29 30 31 32 33 34 35 36 37 38 39 40 41 42 43 44 45 46 47 48 49 50
000
ASUS45 KABQ 241901
RWRNM
NEW MEXICO REGIONAL WEATHER ROUNDUP
NATIONAL WEATHER SERVICE ALBUQUERQUE NM
100 PM MDT SUN SEP 24 2017

NOTE: "FAIR" MEANS FEW OR NO CLOUDS BELOW 12,000 FEET AGL WITH NO
       SIGNIFICANT WEATHER OR OBSTRUCTIONS TO VISION.

      THIS PRODUCT IS RELEASED AS TWO VERSIONS.  ONE VERSION NEAR
      THE TOP OF THE HOUR CONTAINING PRELIMINARY DATA FROM ALBUQUERQUE
      AND OTHER STATIONS.  A FINAL VERSION WITH ADDITIONAL DATA IS
      ISSUED ABOUT 10 MINUTES AFTER THE HOUR.

NMZ501-503-504-510>518-242000-
NORTHWEST PLATEAU/NORTHCENTRAL MOUNTAINS

CITY           SKY/WX    TMP DP  RH WIND       PRES   REMARKS
FARMINGTON     FAIR      61  20  20 W13       29.96F
LOS ALAMOS     FAIR      60  26  27 S16G24    30.03F
SANTA FE       FAIR      65  28  24 SW9G16    29.99F
TAOS           FAIR      63  31  30 SW14G20   30.03F
ANGEL FIRE     FAIR      57  34  42 W3G10     30.06F

$$
NMZ402-403-502-505>509-242000-
WESTCENTRAL MOUNTAINS/SOUTHWEST MOUNTAINS

CITY           SKY/WX    TMP DP  RH WIND       PRES   REMARKS
GALLUP         FAIR      62  21  20 W17G23    30.00F
GRANTS         FAIR      66  13  13 S9G18     30.00F
SILVER CITY    FAIR      72  35  26 SW9G18    29.97F

$$
NMZ407-409-411-412-242000-
SOUTHERN DESERTS

CITY           SKY/WX    TMP DP  RH WIND       PRES   REMARKS
DEMING         FAIR      76  40  27 SW5       29.92F
LAS CRUCES     FAIR      79  39  24 SW9G17    29.93F
HOLLOMAN AFB   FAIR      85  41  21 SE6       29.91F
ALAMOGORDO     PTSUNNY   79  39  24 W13G18    29.91F
T OR C         FAIR      76  36  23 CALM      29.90F

$$
NMZ519>523-242000-
CENTRAL VALLEYS/CENTRAL HIGHLANDS

CITY           SKY/WX    TMP DP  RH WIND       PRES   REMARKS
ALBUQUERQUE    FAIR      68  25  19 VRB7      29.97F
DOUBLE EAGLE   SUNNY     64  28  25 S6        29.99F
MORIARTY ARPT  FAIR      72  29  20 W10G18    29.99F
CLINES CORNERS FAIR      66  27  23 W8G20     30.02F
BELEN          FAIR      71  24  17 S6        29.95F
SOCORRO        FAIR      73  25  16 E6        29.93F

$$
NMZ524>526-539-540-242000-
SOUTHCENTRAL MOUNTAINS

CITY           SKY/WX    TMP DP  RH WIND       PRES   REMARKS
RUIDOSO        NOT AVBL

$$
NMZ527>531-242000-
NORTHEAST HIGHLANDS/NORTHEAST PLAINS

CITY           SKY/WX    TMP DP  RH WIND       PRES   REMARKS
LAS VEGAS      FAIR      65  35  33 SW16G25   30.01S
RATON          NOT AVBL
CLAYTON        PTSUNNY   70  58  65 SE15      29.92F

$$
NMZ532>537-242000-
EASTCENTRAL PLAINS

CITY           SKY/WX    TMP DP  RH WIND       PRES   REMARKS
SANTA ROSA     FAIR      76  38  25 W10G23    29.90F
TUCUMCARI      FAIR      78  56  46 SW10G21   29.86F
CANNON AFB     NOT AVBL
CLOVIS AIRPORT FAIR      75  60  59 SW9       29.93F

$$
NMZ028-029-538-242000-
SOUTHEAST PLAINS

CITY           SKY/WX    TMP DP  RH WIND       PRES   REMARKS
ROSWELL        FAIR      80  56  43 S12G22    29.87F
ARTESIA        FAIR      79  63  57 SE12      29.87F
CARLSBAD       FAIR      80  64  58 SE12G17   29.86F


$$



USA.gov is the U.S. government's official web portal to all federal, state and local government web resources and services.